Location: Banff
(51.1667°N, 115.5667°W)
Time: 16:10:19
(UTC+00:00)

S-56A Canister/Altair - All Passes

Search period start: 26 November 2020 00:00
Search period end: 06 December 2020 00:00
Orbit: 633 x 2499 km, 38.9° (Epoch: 25 November)

Date Brightness Start Highest point End Pass type
(mag) Time Alt. Az. Time Alt. Az. Time Alt. Az.
26 Nov - 03:19:44 10° SSW 03:26:06 19° SSE 03:31:09 10° ESE visible
26 Nov - 05:22:34 10° SW 05:29:31 28° S 05:34:38 10° ESE visible
26 Nov - 07:27:18 10° WSW 07:32:27 23° SSW 07:36:32 10° SE night (unlit)
27 Nov - 02:46:42 10° SSW 02:53:18 19° SSE 02:58:35 10° ESE visible
27 Nov - 04:49:16 10° SW 04:56:50 29° S 05:02:20 10° ESE visible
27 Nov - 06:54:02 10° WSW 06:59:56 26° SSW 07:04:25 10° SE night (unlit)
27 Nov - 09:01:00 10° SW 09:02:13 11° SW 09:03:23 10° SSW night (unlit)
28 Nov - 02:13:42 10° S 02:20:28 18° SSE 02:25:57 10° ESE visible
28 Nov - 04:15:57 10° SW 04:24:06 30° S 04:30:00 10° ESE visible
28 Nov - 06:20:43 10° WSW 06:27:22 28° SSW 06:32:16 10° SE visible
28 Nov - 08:26:56 10° WSW 08:29:47 13° SSW 08:32:18 10° S night (unlit)
29 Nov - 01:40:45 10° S 01:47:36 18° SSE 01:53:14 10° ESE visible
29 Nov - 03:42:36 10° SW 03:51:19 30° SSE 03:57:37 10° ESE visible
29 Nov - 05:47:20 10° WSW 05:54:45 31° S 06:00:05 10° SE visible
29 Nov - 07:53:18 10° WSW 07:57:19 16° SSW 08:00:41 10° S night (unlit)
30 Nov - 01:07:54 10° S 01:14:42 17° SSE 01:20:23 10° ESE visible
30 Nov - 03:09:14 10° SW 03:18:29 30° SSE 03:25:12 10° ESE visible
30 Nov - 05:13:55 10° WSW 05:22:05 33° S 05:27:50 10° SE visible
30 Nov - 07:19:47 10° WSW 07:24:50 20° SSW 07:28:52 10° SSE night (unlit)
01 Dec - 00:35:09 10° S 00:41:45 16° SE 00:47:24 10° ESE visible
01 Dec - 02:35:52 10° SW 02:45:36 30° SSE 02:52:43 10° ESE visible
01 Dec - 04:40:26 10° WSW 04:49:21 35° S 04:55:35 10° ESE visible
01 Dec - 06:46:16 10° WSW 06:52:19 23° SSW 06:56:56 10° SSE visible
02 Dec - 00:02:34 10° S 00:08:47 15° SE 00:14:14 10° ESE visible
02 Dec - 02:02:32 10° SW 02:12:39 30° SSE 02:20:11 10° ESE visible
02 Dec - 04:06:56 10° WSW 04:16:34 37° S 04:23:16 10° ESE visible
02 Dec - 06:12:45 10° WSW 06:19:45 26° SSW 06:24:56 10° SSE visible
02 Dec - 23:30:14 10° SSE 23:35:48 14° SE 23:40:50 10° ESE daylight
03 Dec - 01:29:13 10° SSW 01:39:40 29° SSE 01:47:36 10° ESE visible
03 Dec - 03:33:23 10° WSW 03:43:43 38° S 03:50:55 10° ESE visible
03 Dec - 05:39:11 10° WSW 05:47:07 30° SSW 05:52:49 10° SE visible
03 Dec - 07:47:27 10° WSW 07:49:17 11° SW 07:50:59 10° SSW night (unlit)
03 Dec - 22:58:15 10° SSE 23:02:49 12° SE 23:07:04 10° ESE daylight
04 Dec - 00:55:58 10° SSW 01:06:37 29° SSE 01:14:55 10° ESE visible
04 Dec - 02:59:50 10° WSW 03:10:47 39° S 03:18:30 10° ESE visible
04 Dec - 05:05:35 10° WSW 05:14:26 33° SSW 05:20:40 10° SE visible
04 Dec - 07:12:56 10° WSW 07:16:49 14° SW 07:20:07 10° S night (unlit)
04 Dec - 22:27:02 10° SE 22:29:50 11° SE 22:32:31 10° ESE daylight
05 Dec - 00:22:46 10° SSW 00:33:32 28° SSE 00:42:09 10° E visible
05 Dec - 02:26:17 10° SW 02:37:48 40° S 02:46:03 10° ESE visible
05 Dec - 04:31:58 10° WSW 04:41:40 36° SSW 04:48:27 10° SE visible
05 Dec - 06:38:56 10° WSW 06:44:19 18° SW 06:48:38 10° S visible
